Location: 22
(39.7117°N, 89.5929°W)
Time: 06:01:33
(UTC-05:00)

Vanguard 1 Rocket - Pass Details

Date: 14 February 2023
Orbit: 652 x 4223 km, 34.3° (Epoch: 26 March)

Event Time Altitude Azimuth Distance (km) Brightness Sun altitude
Rises 17:45:46 0° 270° (W) 6,418 13.7 -3.1°
Reaches altitude 10° 17:52:27 10° 251° (WSW) 6,070 13.5 -4.4°
Maximum altitude 18:02:18 16° 221° (SW) 6,307 12.5 -6.2°
Drops below altitude 10° 18:14:10 10° 192° (SSW) 7,328 12.3 -8.5°
Sets 18:24:28 0° 174° (S) 8,443 12.4 -10.4°
